Home   Weather   San Luis Potosi   Past weeks

Flag for Mexico Past Weather in San Luis Potosi, San Luis Potosí, Mexico — Yesterday and Last 2 Weeks

Now
68 °F

Clear.


Feels Like: 68 °F
Forecast: 52 / 87 °F
Wind: 12 mph from West

Location: San Luis Potosi - S. L. P.

Current Time: Apr 30, 2017 at 2:38:47 am

Latest Report: Apr 30, 2017 at 1:43 am


Visibility: 10 mi

Pressure: 30.12 "Hg (24.20 "Hg at 1876m altitude)

Humidity: 10%

Dew Point: 9 °F

Location of San Luis PotosiLocation

Past Weather in San Luis Potosi — Graph

°F

San Luis Potosi Temperature Yesterday

Maximum temperature yesterday: 90 °F (at 6:40 pm)
Minimum temperature yesterday: 57 °F (at 7:40 am)
Average temperature yesterday: 75 °F

High & Low Weather Summary for the Past Weeks

 TemperatureHumidityPressure
High90 °F (Apr 29, 6:40 pm)100% (Apr 15, 8:49 am)30.29 "Hg (Apr 15, 8:49 am)
Low41 °F (Apr 19, 7:43 am)2% (Apr 26, 3:40 pm)29.50 "Hg (Apr 28, 6:49 pm)
Average67 °F41%30.00 "Hg
* Reported Apr 15 12:40 am — Apr 30 12:41 am, San Luis Potosi, Weather by CustomWeather, © 2017

Note: Actual official high and low records may vary slightly from our data, if they occured in-between our weather recording intervals... More about our weather records

Advertising

San Luis Potosi Weather History for the Previous 24 Hours

Scroll right to see more
 ConditionsComfort  
Time TempWeatherWind HumidityBarometerVisibility
12:41 am
Sun, Apr 30
70 °FClear.14 mph9%29.55 "Hg10 mi
11:44 pm
Sat, Apr 29
72 °FClear.14 mph8%30.10 "Hg10 mi
10:43 pm72 °FClear.7 mph6%30.10 "Hg10 mi
9:47 pm75 °FClear.7 mph4%29.57 "Hg10 mi
8:45 pm79 °FClear.7 mph7%30.04 "Hg10 mi
7:41 pm84 °FSunny.17 mph5%30.00 "Hg15 mi
6:40 pm90 °FSunny.20 mph5%29.50 "Hg15 mi
5:50 pm88 °FSunny.23 mph5%29.97 "Hg15 mi
4:45 pm88 °FSunny.23 mph5%29.97 "Hg15 mi
3:40 pm88 °FSunny.16 mph6%29.52 "Hg15 mi
2:45 pm88 °FSunny.24 mph6%30.01 "Hg15 mi
1:44 pm84 °FSunny.22 mph5%30.04 "Hg15 mi
12:51 pm82 °FSunny.21 mph5%29.54 "Hg12 mi
11:43 am79 °FSunny.10 mph5%30.08 "Hg8 mi
10:44 am72 °FSunny.17 mph11%30.07 "Hg8 mi
9:46 am68 °FSunny.16 mph14%29.59 "Hg10 mi
8:42 am63 °FSunny.12 mph20%30.07 "Hg10 mi
7:40 am57 °FSunny.5 mph51%30.07 "Hg10 mi
6:43 am61 °FClear.9 mph42%29.56 "Hg10 mi
5:43 am63 °FPassing clouds.13 mph45%30.03 "Hg8 mi
3:44 am64 °FPassing clouds.14 mph32%29.53 "Hg8 mi
3:15 am66 °FPassing clouds.12 mph28%30.02 "Hg8 mi
Weather by CustomWeather, © 2017

See weather overviewHow to use our weather pages